Home   Weather   Wichita Falls   Past weeks

Flag for USA Past Weather in Wichita Falls, Texas, USA — Yesterday and Last 2 Weeks

Now
63 °F

Passing clouds.


Feels Like: 63 °F
Forecast: 59 / 76 °F
Wind: 10 mph from Northeast

Location: Wichita Falls - Sheppard Air Force Base

Current Time: Sep 26, 2016 at 5:38:42 AM

Latest Report: Sep 26, 2016 at 4:52 AM


Visibility: 10 mi

Pressure: 30.17 "Hg

Humidity: 75%

Dew Point: 55 °F

Location of Wichita FallsLocation

Past Weather in Wichita Falls — Graph

°F

Wichita Falls Temperature Yesterday

Maximum temperature yesterday: 76 °F (at 2:52 PM)
Minimum temperature yesterday: 64 °F (at 6:52 PM)
Average temperature yesterday: 69 °F

High & Low Weather Summary for the Past Weeks

 TemperatureHumidityPressure
High96 °F (Sep 19, 4:52 PM)97% (Sep 15, 2:52 AM)30.19 "Hg (Sep 15, 2:52 AM)
Low60 °F (Sep 11, 4:52 AM)37% (Sep 11, 12:52 PM)29.80 "Hg (Sep 24, 5:52 PM)
Average77 °F73%29.97 "Hg
* Reported Sep 11 3:52 AM — Sep 26 3:52 AM, Wichita Falls, Weather by CustomWeather, © 2016

Note: Actual official high and low records may vary slightly from our data, if they occured in-between our weather recording intervals... More about our weather records

Advertising

Wichita Falls Weather History for the Previous 24 Hours

Scroll right to see more
 ConditionsComfort  
Time TempWeatherWind HumidityBarometerVisibility
3:52 AM
Mon, Sep 26
63 °FClear.8 mph78%30.17 "Hg10 mi
2:52 AM63 °FClear.10 mph75%30.17 "Hg10 mi
1:52 AM64 °FClear.14 mph70%30.17 "Hg10 mi
12:52 AM64 °FPassing clouds.14 mph73%30.16 "Hg10 mi
11:52 PM
Sun, Sep 25
64 °FOvercast.12 mph75%30.18 "Hg10 mi
10:52 PM64 °FOvercast.13 mph73%30.16 "Hg10 mi
9:52 PM64 °FPassing clouds.15 mph75%30.15 "Hg10 mi
8:52 PM64 °FClear.15 mph75%30.12 "Hg10 mi
7:52 PM64 °FPassing clouds.17 mph78%30.11 "Hg10 mi
6:52 PM64 °FPartly sunny.15 mph81%30.11 "Hg10 mi
5:52 PM65 °FOvercast.22 mph85%30.09 "Hg10 mi
4:52 PM67 °FLight rain. Mostly cloudy.24 mph85%30.08 "Hg10 mi
3:52 PM73 °FCloudy.23 mph79%30.06 "Hg10 mi
2:52 PM76 °FOvercast.16 mph74%30.04 "Hg10 mi
1:52 PM74 °FCloudy.10 mph79%30.07 "Hg10 mi
12:52 PM74 °FMostly cloudy.8 mph79%30.07 "Hg10 mi
11:52 AM74 °FBroken clouds.9 mph79%30.06 "Hg10 mi
10:52 AM72 °FBroken clouds.8 mph87%30.06 "Hg10 mi
10:00 AM70 °FMostly cloudy.9 mph93%30.07 "Hg10 mi
9:52 AM70 °FBroken clouds.8 mph93%30.03 "Hg10 mi
8:52 AM69 °FBroken clouds.No wind96%30.03 "Hg10 mi
7:52 AM69 °FLow clouds.8 mph96%30.02 "Hg10 mi
6:52 AM69 °FPassing clouds.5 mph93%30.01 "Hg10 mi
5:52 AM69 °FPassing clouds.5 mph93%29.98 "Hg10 mi
5:02 AM68 °FPartly cloudy.5 mph96%30.03 "Hg10 mi
Weather by CustomWeather, © 2016

See weather overviewHow to use our weather pages